TimeEDT,TemperatureF,Dew PointF,Humidity,Sea Level PressureIn,VisibilityMPH,Wind Direction,Wind SpeedMPH,Gust SpeedMPH,PrecipitationIn,Events,Conditions,WindDirDegrees,DateUTC
12:53 AM,51.1,36.0,56,29.76,10.0,West,13.8,24.2,N/A,,Clear,260,2011-10-21 04:53:00
1:53 AM,50.0,37.0,61,29.78,10.0,WSW,10.4,-,N/A,,Clear,250,2011-10-21 05:53:00
2:53 AM,48.9,37.0,64,29.79,10.0,WSW,11.5,21.9,N/A,,Clear,250,2011-10-21 06:53:00
3:53 AM,48.0,37.0,66,29.81,10.0,WSW,8.1,-,N/A,,Clear,250,2011-10-21 07:53:00
4:53 AM,46.9,37.9,71,29.82,10.0,SW,8.1,-,N/A,,Clear,230,2011-10-21 08:53:00
5:53 AM,48.0,39.0,71,29.86,10.0,WSW,9.2,-,N/A,,Overcast,240,2011-10-21 09:53:00
6:53 AM,46.0,39.0,76,29.88,10.0,WSW,6.9,-,N/A,,Clear,240,2011-10-21 10:53:00
7:53 AM,46.9,39.0,74,29.91,10.0,WSW,9.2,-,N/A,,Partly Cloudy,240,2011-10-21 11:53:00
8:53 AM,50.0,39.9,68,29.94,10.0,WSW,9.2,-,N/A,,Clear,240,2011-10-21 12:53:00
9:53 AM,51.1,39.9,66,29.95,10.0,West,12.7,23.0,N/A,,Overcast,260,2011-10-21 13:53:00
11:53 AM,52.0,39.0,61,29.98,10.0,West,11.5,-,N/A,,Overcast,280,2011-10-21 15:53:00
12:53 PM,53.1,39.0,59,29.98,10.0,West,11.5,-,N/A,,Mostly Cloudy,260,2011-10-21 16:53:00
1:53 PM,54.0,39.9,59,29.97,10.0,West,8.1,-,N/A,,Overcast,270,2011-10-21 17:53:00
2:53 PM,53.1,39.9,61,29.97,10.0,West,10.4,-,0.00,,Overcast,270,2011-10-21 18:53:00
3:53 PM,53.1,42.1,66,29.98,10.0,West,8.1,-,N/A,,Overcast,280,2011-10-21 19:53:00
4:53 PM,53.1,41.0,64,29.99,10.0,West,6.9,-,N/A,,Overcast,260,2011-10-21 20:53:00
5:53 PM,52.0,41.0,66,30.01,10.0,WNW,10.4,-,N/A,,Overcast,290,2011-10-21 21:53:00
6:53 PM,52.0,39.9,63,30.04,10.0,West,11.5,-,N/A,,Overcast,280,2011-10-21 22:53:00
7:53 PM,51.1,39.9,66,30.05,10.0,West,6.9,-,N/A,,Overcast,270,2011-10-21 23:53:00
8:53 PM,50.0,41.0,71,30.06,10.0,West,8.1,-,N/A,,Overcast,260,2011-10-22 00:53:00
9:53 PM,46.0,39.9,79,30.07,10.0,West,8.1,-,N/A,,Clear,270,2011-10-22 01:53:00
10:53 PM,45.0,39.9,82,30.08,10.0,West,6.9,-,N/A,,Clear,260,2011-10-22 02:53:00
11:53 PM,44.1,39.9,85,30.08,10.0,West,5.8,-,N/A,,Clear,260,2011-10-22 03:53:00